This demonstration page uses our WeatherBlox Daily Observations layout. Learn more.

Left ArrowRight Arrow

34.16533, -84.80231

Hourly Observations for May 27, 2017

Temp ( °F °C ) Dew Point ( °F °C ) Humidity (%) Winds ( mph kmh ) Pressure ( in mb ) Visibility ( mi km ) Precip ( " mm )
12:53 am 00:53 Clear 64 17.8 64 17.8 100 100 Calm 29.98 1015 10 16 0.00 0.00
1:53 am 01:53 Clear 63 17.2 63 17.2 100 100 Calm 29.99 1016 10 16 0.00 0.00
2:53 am 02:53 Clear 62 16.7 62 16.7 100 100 Calm 29.98 1015 10 16 0.00 0.00
3:53 am 03:53 Clear 63 17.2 63 17.2 100 100 Calm 29.98 1015 10 16 0.00 0.00
4:53 am 04:53 Clear 63 17.2 63 17.2 100 100 Calm 29.98 1015 10 16 0.00 0.00
5:53 am 05:53 Clear 62 16.7 62 16.7 100 100 Calm 29.98 1015 10 16 0.00 0.00
6:53 am 06:53 Sunny 62 16.7 62 16.7 100 100 Calm 29.99 1016 10 16 0.00 0.00
7:53 am 07:53 Sunny 67 19.4 63 17.2 87 87 VRB 3 6 30.00 1016 10 16 0.00 0.00
8:53 am 08:53 Sunny 71 21.7 65 18.3 81 81 S 3 6 30.01 1016 10 16 0.00 0.00
9:53 am 09:53 Sunny 74 23.3 65 18.3 74 74 Calm 30.01 1016 10 16 0.00 0.00
10:53 am 10:53 Sunny 76 24.4 66 18.9 72 72 Calm 30.03 1017 10 16 0.00 0.00
11:53 am 11:53 Sunny 78 25.6 66 18.9 67 67 Calm 30.03 1017 10 16 0.00 0.00
12:53 pm 12:53 Mostly Sunny 79 26.1 67 19.4 67 67 VRB 3 6 30.02 1017 10 16 0.00 0.00
1:53 pm 13:53 Mostly Sunny 81 27.2 68 20 65 65 S 5 7 30.01 1016 10 16 0.00 0.00
2:53 pm 14:53 Partly Cloudy 82 27.8 68 20 63 63 VRB 7 11 29.98 1015 10 16 0.00 0.00
3:53 pm 15:53 Partly Cloudy 82 27.8 68 20 63 63 undefined N/A 29.95 1014 10 16 0.00 0.00
4:53 pm 16:53 Mostly Cloudy 82 27.8 68 20 63 63 VRB 7 11 29.94 1014 10 16 0.00 0.00
5:53 pm 17:53 Mostly Cloudy 81 27.2 70 21.1 69 69 SSW 7 11 29.93 1013 10 16 0.00 0.00
6:53 pm 18:53 Mostly Cloudy 81 27.2 71 21.7 72 72 S 3 6 29.93 1013 10 16 0.00 0.00
7:53 pm 19:53 Mostly Cloudy 79 26.1 72 22.2 79 79 S 3 6 29.92 1013 10 16 0.00 0.00
8:53 pm 20:53 Cloudy 76 24.4 72 22.2 88 88 S 5 7 29.91 1013 10 16 0.00 0.00
9:53 pm 21:53 Mostly Cloudy 76 24.4 72 22.2 88 88 S 7 11 29.90 1013 10 16 0.00 0.00
10:53 pm 22:53 Mostly Cloudy 76 24.4 72 22.2 88 88 Calm 29.93 1013 10 16 0.00 0.00
11:53 pm 23:53 Mostly Cloudy 73 22.8 73 22.8 100 100 Calm 29.94 1014 10 16 0.00 0.00

Powered by AerisWeather